Namest Nad Oslav, Czech Republic

1:47 AM CET on November 14, 2019 (GMT +0100)
Namest

Weather History for LKNA - October, 2019

Change the Weather History Date:

Monday, October 21, 2019

  Actual Average Record
Temperature  
Mean Temperature 56 °F -  
Max Temperature 64 °F - - ()
Min Temperature 48 °F - - ()
Degree Days  
Heating Degree Days 9    
Growing Degree Days 6 (Base 50)    
Moisture  
Dew Point 52 °F    
Average Humidity 85    
Maximum Humidity 100    
Minimum Humidity 56    
Precipitation  
Precipitation 0.00 in - - ()
Sea Level Pressure  
Sea Level Pressure 30.07 in    
Wind  
Wind Speed 5 mph ()    
Max Wind Speed 9 mph    
Max Gust Speed -    
Visibility 7.3 miles    
Events Fog    
T = Trace of Precipitation, MM = Missing Value Source: Averaged Metar Reports

Daily Weather History Graph

Daily Weather History Graph

Search for Another Location

Airport or City:

Astronomy

Oct. 21, 2019 Rise Set
Actual Time 7:24 AM CEST 5:54 PM CEST
Civil Twilight 6:52 AM CEST 6:27 PM CEST
Nautical Twilight 6:15 AM CEST 7:03 PM CEST
Astronomical Twilight 5:38 AM CEST 7:40 PM CEST
Moon 11:31 PM CEST (10/21) 2:48 PM CEST (10/21)
Length of Visible Light 11h 34m
Length of Day
10h 29m
Waning Gibbous, 51% of the Moon is Illuminated
Oct 21
Waning Gibbous
Oct 21
Last Quarter
Oct 28
New
Nov 4
First Quarter
Nov 12
Full

Hourly Weather History & Observations

Time (CEST) Temp. Dew Point Humidity Pressure Visibility Wind Dir Wind Speed Gust Speed Precip Events Conditions
12:00 AM 56 °F 53 °F 85% 29.95 in 12 mi ENE 6.7 mph - -   Clear
12:00 AM 57.2 °F 51.8 °F 82% 29.95 in - East 6.9 mph - N/A   Clear
1:00 AM 56 °F 52 °F 83% 29.96 in 12 mi East 4.5 mph - -   Clear
1:00 AM 55.4 °F 51.8 °F 88% 29.98 in - East 6.9 mph - N/A   Clear
2:00 AM 54 °F 52 °F 92% 29.98 in 12 mi East 2.2 mph - -   Clear
2:00 AM 55.4 °F 51.8 °F 88% 29.98 in - East 6.9 mph - N/A   Clear
3:00 AM 52 °F 50 °F 92% 29.99 in 9 mi NE 4.5 mph - -   Clear
3:00 AM 53.6 °F 51.8 °F 94% 29.98 in - NE 5.8 mph - N/A   Clear
4:00 AM 51 °F 51 °F 99% 30.00 in 6 mi NNE 4.5 mph - -   Clear
4:00 AM 51.8 °F 50.0 °F 94% 29.98 in - ENE 5.8 mph - N/A   Clear
5:00 AM 51 °F 51 °F 99% 30.01 in 6 mi NE 4.5 mph - -  
5:00 AM 51.8 °F 50.0 °F 94% 30.01 in - ENE 4.6 mph - N/A   Clear
5:34 AM 48.2 °F 48.2 °F 100% 30.01 in 0.9 mi NE 5.8 mph - N/A   Partly Cloudy
5:45 AM 48.2 °F 48.2 °F 100% 30.01 in 0.3 mi NE 5.8 mph - N/A Fog Fog
6:00 AM 49 °F 49 °F 99% 30.03 in 1 mi NE 4.5 mph - - Fog Light Fog
6:00 AM 48.2 °F 48.2 °F 100% 30.01 in 0.3 mi NE 5.8 mph - N/A Fog Fog
6:06 AM 48.2 °F 48.2 °F 100% 30.01 in 2.5 mi ENE 4.6 mph - N/A   Partly Cloudy
7:00 AM 50.0 °F 50.0 °F 100% 30.01 in 2.5 mi East 3.5 mph - N/A Fog Mostly Cloudy
8:00 AM 48.2 °F 48.2 °F 100% 30.04 in 1.9 mi ENE 4.6 mph - N/A Fog Mostly Cloudy
9:00 AM 53 °F 52 °F 96% 30.08 in 4 mi East 2.2 mph - -   Mist
9:00 AM 51.8 °F 51.8 °F 100% 30.06 in 5.0 mi East 4.6 mph - N/A   Mostly Cloudy
10:00 AM 55.4 °F 53.6 °F 94% 30.09 in - East 4.6 mph - N/A   Clear
11:00 AM 59 °F 54 °F 78% 30.10 in 6 mi ESE 4.5 mph - -   Scattered Clouds
11:00 AM 59.0 °F 55.4 °F 88% 30.09 in - East 3.5 mph - N/A   Clear
12:00 PM 61 °F 53 °F 69% 30.10 in 12 mi ESE 6.7 mph - -   Clear
1:00 PM 63 °F 54 °F 63% 30.10 in 12 mi ESE 6.7 mph - -   Clear
1:00 PM 62.6 °F 55.4 °F 77% 30.12 in - ESE 5.8 mph - N/A   Clear
2:00 PM 64 °F 53 °F 60% 30.10 in 12 mi East 6.7 mph - -   Clear
2:00 PM 62.6 °F 53.6 °F 72% 30.12 in - ESE 8.1 mph - N/A   Clear
3:00 PM 64 °F 53 °F 59% 30.10 in 12 mi ESE 6.7 mph - -   Clear
3:00 PM 64.4 °F 55.4 °F 73% 30.12 in - ESE 6.9 mph - N/A   Clear
4:00 PM 64 °F 52 °F 56% 30.11 in 12 mi SE 8.9 mph - -   Clear
4:00 PM 64.4 °F 53.6 °F 68% 30.12 in - SE 9.2 mph - N/A   Clear
5:00 PM 62.6 °F 53.6 °F 72% 30.12 in - SE 6.9 mph - N/A   Clear
6:00 PM 60 °F 53 °F 70% 30.13 in 12 mi SSE 4.5 mph - -   Clear
6:00 PM 60.8 °F 53.6 °F 77% 30.12 in - South 4.6 mph - N/A   Clear
7:00 PM 59 °F 53 °F 75% 30.15 in 9 mi SE 2.2 mph - -   Clear
7:00 PM 59.0 °F 53.6 °F 82% 30.15 in - SE 5.8 mph - N/A   Clear
8:00 PM 58 °F 53 °F 79% 30.16 in 9 mi NNE 4.5 mph - -   Clear
8:00 PM 59.0 °F 53.6 °F 82% 30.15 in - NE 3.5 mph - N/A   Clear
9:00 PM 58 °F 53 °F 80% 30.16 in 9 mi North 6.7 mph - -  
9:00 PM 57.2 °F 53.6 °F 88% 30.15 in - North 3.5 mph - N/A   Clear
10:00 PM 57 °F 53 °F 83% 30.16 in 9 mi North 6.7 mph - -  
10:00 PM 55.4 °F 53.6 °F 94% 30.15 in - North 4.6 mph - N/A   Clear